When you browse on this site, cookies collect data to enhance your experience and personalize the content and advertising you see.
Visit our Privacy Policy to learn more. By continuing to use the site, you agree to this use of cookies and data.
  • în România
  • Lista ţărilor
  • Pe 7 zile
  • Temperatura apei
  • Meteo pe hartă
  • Widget-uri
  • user-avatar
    Intrare

    Meteo pe oră la Adra

    Astăzi, 4 Iunie, Joi

    Timp Temperatura Precipitaţii Vânt Presiune Umiditate
    00:00 +26°C° 0 mm 6 m/s 754 mmHg 53%
    01:00 +26°C° 0 mm 6 m/s 754 mmHg 54%
    02:00 +24°C° 0 mm 6 m/s 754 mmHg 54%
    03:00 +23°C° 0 mm 7 m/s 754 mmHg 55%
    04:00 +23°C° 0 mm 7 m/s 754 mmHg 58%
    05:00 +24°C° 0 mm 7 m/s 754 mmHg 61%
    06:00 +24°C° 0 mm 8 m/s 754 mmHg 63%
    07:00 +26°C° 0 mm 8 m/s 754 mmHg 56%
    08:00 +27°C° 0 mm 9 m/s 754 mmHg 50%
    09:00 +29°C° 0 mm 10 m/s 754 mmHg 43%
    10:00 +29°C° 0 mm 11 m/s 754 mmHg 44%
    11:00 +29°C° 0 mm 11 m/s 754 mmHg 45%
    12:00 +31°C° 0 mm 12 m/s 755 mmHg 46%
    13:00 +31°C° 0 mm 12 m/s 754 mmHg 48%
    14:00 +29°C° 0 mm 12 m/s 754 mmHg 50%
    15:00 +29°C° 0 mm 12 m/s 754 mmHg 52%
    16:00 +29°C° 0 mm 12 m/s 754 mmHg 55%
    17:00 +28°C° 0 mm 11 m/s 754 mmHg 57%
    18:00 +27°C° 0 mm 11 m/s 754 mmHg 60%
    19:00 +27°C° 0 mm 10 m/s 755 mmHg 64%
    20:00 +26°C° 0 mm 10 m/s 756 mmHg 68%
    21:00 +24°C° 0 mm 9 m/s 756 mmHg 72%
    22:00 +24°C° 0 mm 8 m/s 756 mmHg 72%
    23:00 +23°C° 0 mm 7 m/s 757 mmHg 72%

    Mâine, 5 Iunie, Vineri

    Timp Temperatura Precipitaţii Vânt Presiune Umiditate
    00:00 +23°C° 0 mm 7 m/s 757 mmHg 71%
    01:00 +23°C° 0 mm 6 m/s 757 mmHg 72%
    02:00 +22°C° 0 mm 6 m/s 757 mmHg 72%
    03:00 +22°C° 0 mm 5 m/s 756 mmHg 72%
    04:00 +22°C° 0 mm 5 m/s 757 mmHg 71%
    05:00 +23°C° 0 mm 5 m/s 757 mmHg 70%
    06:00 +23°C° 0 mm 5 m/s 757 mmHg 68%
    07:00 +25°C° 0 mm 5 m/s 757 mmHg 61%
    08:00 +27°C° 0 mm 5 m/s 758 mmHg 55%
    09:00 +28°C° 0 mm 6 m/s 758 mmHg 48%
    10:00 +29°C° 0 mm 6 m/s 758 mmHg 47%
    11:00 +30°C° 0 mm 6 m/s 758 mmHg 46%
    12:00 +32°C° 0 mm 7 m/s 757 mmHg 45%
    13:00 +32°C° 0 mm 7 m/s 757 mmHg 46%
    14:00 +32°C° 0 mm 7 m/s 757 mmHg 47%
    15:00 +32°C° 0 mm 7 m/s 757 mmHg 48%
    16:00 +32°C° 0 mm 7 m/s 757 mmHg 49%
    17:00 +30°C° 0 mm 6 m/s 756 mmHg 50%
    18:00 +30°C° 0 mm 6 m/s 756 mmHg 51%
    19:00 +29°C° 0 mm 6 m/s 757 mmHg 54%
    20:00 +28°C° 0 mm 5 m/s 757 mmHg 57%
    21:00 +27°C° 0 mm 5 m/s 758 mmHg 60%
    22:00 +27°C° 0 mm 5 m/s 758 mmHg 59%
    23:00 +26°C° 0 mm 4 m/s 758 mmHg 59%

    Poimâine, 6 Iunie, Sâmbătă

    Timp Temperatura Precipitaţii Vânt Presiune Umiditate
    00:00 +26°C° 0 mm 4 m/s 758 mmHg 58%
    01:00 +25°C° 0 mm 4 m/s 757 mmHg 57%
    02:00 +25°C° 0 mm 4 m/s 757 mmHg 56%
    03:00 +25°C° 0 mm 4 m/s 757 mmHg 56%
    04:00 +25°C° 0 mm 4 m/s 757 mmHg 54%
    05:00 +25°C° 0 mm 3 m/s 757 mmHg 52%
    06:00 +26°C° 0 mm 3 m/s 757 mmHg 51%
    07:00 +27°C° 0 mm 4 m/s 757 mmHg 46%
    08:00 +29°C° 0 mm 4 m/s 757 mmHg 41%
    09:00 +30°C° 0 mm 5 m/s 757 mmHg 36%
    10:00 +32°C° 0 mm 5 m/s 757 mmHg 34%
    11:00 +33°C° 0 mm 5 m/s 757 mmHg 32%
    12:00 +34°C° 0 mm 6 m/s 756 mmHg 30%
    13:00 +34°C° 0 mm 6 m/s 756 mmHg 30%
    14:00 +34°C° 0 mm 6 m/s 755 mmHg 29%
    15:00 +34°C° 0 mm 7 m/s 755 mmHg 28%
    16:00 +34°C° 0 mm 6 m/s 755 mmHg 29%
    17:00 +33°C° 0 mm 6 m/s 755 mmHg 30%
    18:00 +32°C° 0 mm 5 m/s 754 mmHg 31%
    19:00 +30°C° 0 mm 5 m/s 755 mmHg 37%
    20:00 +29°C° 0 mm 5 m/s 755 mmHg 42%
    21:00 +28°C° 0 mm 4 m/s 755 mmHg 47%
    22:00 +27°C° 0.1 mm 5 m/s 755 mmHg 49%
    23:00 +27°C° 0.1 mm 6 m/s 755 mmHg 51%

    7 Iunie, Duminică

    Timp Temperatura Precipitaţii Vânt Presiune Umiditate
    00:00 +26°C° 0.1 mm 7 m/s 756 mmHg 53%
    01:00 +24°C° 0 mm 7 m/s 756 mmHg 54%
    02:00 +24°C° 0 mm 6 m/s 755 mmHg 55%
    03:00 +23°C° 0 mm 6 m/s 755 mmHg 56%
    04:00 +23°C° 0 mm 6 m/s 755 mmHg 55%
    05:00 +23°C° 0 mm 7 m/s 755 mmHg 54%
    06:00 +23°C° 0 mm 7 m/s 756 mmHg 54%
    07:00 +26°C° 0 mm 7 m/s 756 mmHg 49%
    08:00 +27°C° 0 mm 7 m/s 756 mmHg 44%
    09:00 +29°C° 0 mm 7 m/s 757 mmHg 39%
    10:00 +29°C° 0 mm 7 m/s 756 mmHg 39%
    11:00 +29°C° 0 mm 8 m/s 756 mmHg 40%
    12:00 +31°C° 0 mm 9 m/s 756 mmHg 41%
    13:00 +31°C° 0 mm 9 m/s 756 mmHg 42%
    14:00 +29°C° 0 mm 9 m/s 756 mmHg 44%
    15:00 +29°C° 0 mm 9 m/s 756 mmHg 45%
    16:00 +29°C° 0 mm 9 m/s 756 mmHg 47%
    17:00 +28°C° 0 mm 8 m/s 756 mmHg 49%
    18:00 +28°C° 0 mm 8 m/s 756 mmHg 52%
    19:00 +27°C° 0 mm 8 m/s 756 mmHg 55%
    20:00 +26°C° 0 mm 7 m/s 757 mmHg 58%
    21:00 +24°C° 0 mm 6 m/s 757 mmHg 61%
    22:00 +24°C° 0 mm 6 m/s 757 mmHg 64%
    23:00 +23°C° 0 mm 5 m/s 757 mmHg 66%

    8 Iunie, Luni

    Timp Temperatura Precipitaţii Vânt Presiune Umiditate
    00:00 +23°C° 0 mm 5 m/s 757 mmHg 68%
    01:00 +22°C° 0 mm 4 m/s 757 mmHg 69%
    02:00 +22°C° 0 mm 4 m/s 757 mmHg 70%
    03:00 +21°C° 0 mm 4 m/s 757 mmHg 71%
    04:00 +22°C° 0 mm 4 m/s 757 mmHg 70%
    05:00 +22°C° 0 mm 4 m/s 757 mmHg 69%
    06:00 +22°C° 0 mm 4 m/s 757 mmHg 68%
    07:00 +25°C° 0 mm 5 m/s 757 mmHg 63%
    08:00 +26°C° 0 mm 5 m/s 757 mmHg 58%
    09:00 +27°C° 0 mm 6 m/s 758 mmHg 53%
    10:00 +27°C° 0.1 mm 6 m/s 757 mmHg 56%
    11:00 +27°C° 0.1 mm 7 m/s 757 mmHg 59%
    12:00 +27°C° 0.1 mm 7 m/s 757 mmHg 61%
    13:00 +27°C° 0.2 mm 6 m/s 757 mmHg 63%
    14:00 +26°C° 0.2 mm 6 m/s 757 mmHg 65%
    15:00 +26°C° 0.2 mm 6 m/s 757 mmHg 68%
    16:00 +26°C° 0.1 mm 6 m/s 757 mmHg 66%
    17:00 +26°C° 0.1 mm 6 m/s 757 mmHg 64%
    18:00 +27°C° 0.1 mm 6 m/s 757 mmHg 62%
    19:00 +26°C° 0 mm 5 m/s 757 mmHg 65%
    20:00 +25°C° 0 mm 4 m/s 757 mmHg 68%
    21:00 +24°C° 0 mm 3 m/s 758 mmHg 71%
    22:00 +24°C° 0 mm 3 m/s 758 mmHg 72%
    23:00 +23°C° 0 mm 2 m/s 758 mmHg 73%

    9 Iunie, Marţi

    Timp Temperatura Precipitaţii Vânt Presiune Umiditate
    00:00 +23°C° 0 mm 2 m/s 758 mmHg 74%
    01:00 +23°C° 0 mm 2 m/s 758 mmHg 78%
    02:00 +21°C° 0 mm 2 m/s 757 mmHg 82%
    03:00 +20°C° 0 mm 2 m/s 757 mmHg 86%
    04:00 +21°C° 0 mm 2 m/s 757 mmHg 84%
    05:00 +21°C° 0 mm 2 m/s 758 mmHg 82%
    06:00 +23°C° 0 mm 1 m/s 758 mmHg 80%
    07:00 +24°C° 0 mm 2 m/s 758 mmHg 75%
    08:00 +25°C° 0 mm 2 m/s 758 mmHg 71%
    09:00 +26°C° 0 mm 2 m/s 758 mmHg 66%
    10:00 +27°C° 0 mm 2 m/s 758 mmHg 62%
    11:00 +27°C° 0 mm 2 m/s 758 mmHg 59%
    12:00 +28°C° 0 mm 2 m/s 758 mmHg 55%
    13:00 +28°C° 0 mm 2 m/s 758 mmHg 53%
    14:00 +28°C° 0 mm 2 m/s 758 mmHg 51%
    15:00 +29°C° 0 mm 2 m/s 757 mmHg 48%
    16:00 +28°C° 0 mm 2 m/s 757 mmHg 48%
    17:00 +28°C° 0 mm 1 m/s 757 mmHg 48%
    18:00 +28°C° 0 mm 1 m/s 757 mmHg 48%
    19:00 +27°C° 0 mm 1 m/s 758 mmHg 53%
    20:00 +26°C° 0 mm 1 m/s 758 mmHg 57%
    21:00 +25°C° 0 mm 1 m/s 758 mmHg 62%
    22:00 +24°C° 0 mm 1 m/s 758 mmHg 66%
    23:00 +23°C° 0 mm 1 m/s 759 mmHg 70%
    Arată mai mult